| time (UTC) | temp F | wind direction | speed MPH | gust MPH | rain 1hr in | rain 24hr in | rain mn in | humidity % | barometer mb |
| 20260903035530 | 69 | 128 | 3.0 | 7.0 | 0.00 | 0.00 | 0.00 | 83 | 1018.3 |
| 20260903035033 | 69 | 128 | 2.0 | 8.0 | 0.00 | 0.00 | 0.00 | 83 | 1018.4 |
| 20260903034551 | 69 | 128 | 3.0 | 9.0 | 0.00 | 0.00 | 0.00 | 83 | 1018.3 |
| 20260903034034 | 69 | 127 | 3.0 | 9.0 | 0.00 | 0.00 | 0.00 | 83 | 1018.4 |
| 20260903033533 | 69 | 127 | 4.0 | 9.0 | 0.00 | 0.00 | 0.00 | 83 | 1018.4 |
| 20260903033053 | 69 | 127 | 3.0 | 8.0 | 0.00 | 0.00 | 0.00 | 83 | 1018.4 |
| 20260903032531 | 69 | 123 | 3.0 | 8.0 | 0.00 | 0.00 | 0.00 | 83 | 1018.7 |
| 20260903032033 | 69 | 150 | 2.0 | 8.0 | 0.00 | 0.00 | 0.00 | 83 | 1018.9 |
| 20260903031550 | 69 | 150 | 2.0 | 8.0 | 0.00 | 0.00 | 0.00 | 83 | 1019.0 |
| 20260903031031 | 69 | 150 | 3.0 | 8.0 | 0.00 | 0.00 | 0.00 | 83 | 1019.2 |
| 20260903030532 | 69 | 150 | 2.0 | 8.0 | 0.00 | 0.00 | 0.00 | 83 | 1019.3 |
| 20260903030108 | 69 | 150 | 2.0 | 8.0 | 0.00 | 0.00 | 0.00 | 83 | 1019.3 |
| 20260903025536 | 68 | 151 | 1.0 | 7.0 | 0.00 | 0.00 | 0.00 | 83 | 1019.1 |
| 20260903025031 | 68 | 152 | 2.0 | 8.0 | 0.00 | 0.00 | 0.00 | 83 | 1019.1 |
| 20260903024550 | 68 | 150 | 2.0 | 8.0 | 0.00 | 0.00 | 0.00 | 83 | 1019.3 |
| 20260903024030 | 68 | 153 | 2.0 | 5.0 | 0.00 | 0.00 | 0.00 | 83 | 1019.1 |
| 20260903023533 | 68 | 153 | 1.0 | 4.0 | 0.00 | 0.00 | 0.00 | 83 | 1019.4 |
| 20260903023048 | 68 | 153 | 2.0 | 7.0 | 0.00 | 0.00 | 0.00 | 82 | 1019.4 |
| 20260903022531 | 68 | 153 | 2.0 | 7.0 | 0.00 | 0.00 | 0.00 | 82 | 1019.4 |
| 20260903022030 | 68 | 153 | 3.0 | 7.0 | 0.00 | 0.00 | 0.00 | 82 | 1019.4 |
| 20260903021546 | 68 | 154 | 1.0 | 8.0 | 0.00 | 0.00 | 0.00 | 82 | 1019.3 |
| 20260903021031 | 68 | 155 | 3.0 | 8.0 | 0.00 | 0.00 | 0.00 | 82 | 1019.4 |
| 20260903020530 | 68 | 155 | 3.0 | 9.0 | 0.00 | 0.00 | 0.00 | 82 | 1019.5 |
| 20260903020046 | 68 | 155 | 1.0 | 9.0 | 0.00 | 0.00 | 0.00 | 82 | 1019.5 |
| 20260903015530 | 68 | 156 | 3.0 | 7.0 | 0.00 | 0.00 | 0.00 | 82 | 1019.5 |
| 20260903015031 | 68 | 156 | 3.0 | 9.0 | 0.00 | 0.00 | 0.00 | 82 | 1019.3 |
| 20260903014559 | 68 | 162 | 3.0 | 9.0 | 0.00 | 0.00 | 0.00 | 82 | 1019.3 |
| 20260903014034 | 68 | 125 | 4.0 | 10.0 | 0.00 | 0.00 | 0.00 | 81 | 1019.4 |
| 20260903013534 | 69 | 123 | 3.0 | 10.0 | 0.00 | 0.00 | 0.00 | 81 | 1019.5 |
| 20260903013048 | 69 | 112 | 1.0 | 9.0 | 0.00 | 0.00 | 0.00 | 81 | 1019.9 |
| 20260903012534 | 69 | 112 | 4.0 | 9.0 | 0.00 | 0.00 | 0.00 | 81 | 1020.0 |
| 20260903012037 | 68 | 111 | 3.0 | 9.0 | 0.00 | 0.00 | 0.00 | 81 | 1020.0 |
| 20260903011608 | 68 | 109 | 2.0 | 7.0 | 0.00 | 0.00 | 0.00 | 81 | 1020.0 |
| 20260903011034 | 68 | 109 | 3.0 | 7.0 | 0.00 | 0.00 | 0.00 | 81 | 1020.3 |
| 20260903010535 | 68 | 107 | 1.0 | 7.0 | 0.00 | 0.00 | 0.00 | 81 | 1020.2 |
| 20260903010115 | 68 | 107 | 2.0 | 8.0 | 0.00 | 0.00 | 0.00 | 81 | 1020.2 |
| 20260903005534 | 68 | 105 | 3.0 | 8.0 | 0.00 | 0.00 | 0.00 | 81 | 1020.1 |
| 20260903005034 | 68 | 105 | 3.0 | 8.0 | 0.00 | 0.00 | 0.00 | 81 | 1020.0 |
| 20260903004550 | 68 | 105 | 2.0 | 8.0 | 0.00 | 0.00 | 0.00 | 81 | 1019.9 |
| 20260903004034 | 68 | 103 | 2.0 | 8.0 | 0.00 | 0.00 | 0.00 | 81 | 1019.6 |
| 20260903003532 | 68 | 92 | 2.0 | 11.0 | 0.00 | 0.00 | 0.00 | 81 | 1019.5 |
| 20260903003052 | 68 | 90 | 3.0 | 11.0 | 0.00 | 0.00 | 0.00 | 81 | 1019.2 |
| 20260903002531 | 68 | 108 | 4.0 | 11.0 | 0.00 | 0.00 | 0.00 | 81 | 1018.8 |
| 20260903002034 | 68 | 128 | 2.0 | 9.0 | 0.00 | 0.00 | 0.00 | 81 | 1018.9 |
| 20260903001546 | 68 | 113 | 2.0 | 8.0 | 0.00 | 0.00 | 0.00 | 81 | 1019.0 |
| 20260903001035 | 68 | 107 | 3.0 | 8.0 | 0.00 | 0.00 | 0.00 | 81 | 1019.2 |
| 20260903000532 | 68 | 130 | 2.0 | 7.0 | 0.00 | 0.00 | 0.00 | 81 | 1019.3 |
| 20260903000046 | 68 | 0 | 2.0 | 7.0 | 0.00 | 0.00 | 0.00 | 81 | 1019.5 |
| 20260902235531 | 68 | 101 | 2.0 | 7.0 | 0.00 | 0.00 | 0.00 | 80 | 1019.5 |
| 20260902235030 | 68 | 134 | 2.0 | 7.0 | 0.00 | 0.00 | 0.00 | 80 | 1019.6 |
| 20260902234556 | 68 | 0 | 1.0 | 7.0 | 0.00 | 0.00 | 0.00 | 80 | 1019.8 |
| 20260902234037 | 68 | 136 | 1.0 | 9.0 | 0.00 | 0.00 | 0.00 | 80 | 1019.8 |
| 20260902233535 | 68 | 0 | 2.0 | 9.0 | 0.00 | 0.00 | 0.00 | 80 | 1019.8 |
| 20260902233048 | 68 | 148 | 2.0 | 8.0 | 0.00 | 0.00 | 0.00 | 80 | 1019.9 |
| 20260902232534 | 68 | 128 | 2.0 | 8.0 | 0.00 | 0.00 | 0.00 | 80 | 1019.9 |
| 20260902232030 | 68 | 116 | 3.0 | 9.0 | 0.00 | 0.00 | 0.00 | 80 | 1020.1 |
| 20260902231606 | 69 | 124 | 3.0 | 9.0 | 0.00 | 0.00 | 0.00 | 79 | 1020.2 |
| 20260902231035 | 69 | 110 | 3.0 | 9.0 | 0.00 | 0.00 | 0.00 | 80 | 1020.3 |
| 20260902230531 | 69 | 115 | 3.0 | 9.0 | 0.00 | 0.00 | 0.00 | 80 | 1020.3 |
| 20260902230057 | 69 | 102 | 2.0 | 6.0 | 0.00 | 0.00 | 0.00 | 80 | 1020.5 |
| 20260902225530 | 69 | 102 | 1.0 | 7.0 | 0.00 | 0.00 | 0.00 | 80 | 1020.7 |
| 20260902225030 | 69 | 0 | 1.0 | 7.0 | 0.00 | 0.00 | 0.00 | 80 | 1020.8 |
| 20260902224604 | 69 | 101 | 2.0 | 7.0 | 0.00 | 0.00 | 0.00 | 80 | 1020.8 |
| 20260902224034 | 69 | 0 | 0.0 | 6.0 | 0.00 | 0.00 | 0.00 | 81 | 1020.7 |
| 20260902223535 | 69 | 101 | 2.0 | 4.0 | 0.00 | 0.00 | 0.00 | 81 | 1020.8 |
| 20260902223055 | 69 | 101 | 0.0 | 2.0 | 0.00 | 0.00 | 0.00 | 81 | 1020.9 |
| 20260902222533 | 69 | 0 | 0.0 | 2.0 | 0.00 | 0.00 | 0.00 | 81 | 1021.0 |
| 20260902222034 | 69 | 0 | 0.0 | 4.0 | 0.00 | 0.00 | 0.00 | 81 | 1020.9 |
| 20260902221600 | 69 | 0 | 1.0 | 4.0 | 0.00 | 0.00 | 0.00 | 81 | 1020.9 |
| 20260902221033 | 69 | 101 | 1.0 | 6.0 | 0.00 | 0.00 | 0.00 | 81 | 1020.8 |
| 20260902220531 | 69 | 101 | 1.0 | 7.0 | 0.00 | 0.00 | 0.00 | 81 | 1020.8 |
| 20260902220056 | 69 | 0 | 2.0 | 7.0 | 0.00 | 0.00 | 0.00 | 80 | 1020.8 |
| 20260902215531 | 69 | 0 | 1.0 | 7.0 | 0.00 | 0.00 | 0.00 | 80 | 1020.7 |
| 20260902215030 | 69 | 0 | 2.0 | 7.0 | 0.00 | 0.00 | 0.00 | 80 | 1020.5 |
| 20260902214558 | 69 | 96 | 1.0 | 8.0 | 0.00 | 0.00 | 0.00 | 80 | 1020.3 |
| 20260902214031 | 69 | 96 | 2.0 | 8.0 | 0.00 | 0.00 | 0.00 | 80 | 1020.3 |
| 20260902213533 | 69 | 96 | 2.0 | 10.0 | 0.00 | 0.00 | 0.00 | 79 | 1020.2 |
| 20260902213049 | 69 | 94 | 3.0 | 10.0 | 0.00 | 0.00 | 0.00 | 78 | 1020.4 |
| 20260902212534 | 69 | 105 | 2.0 | 8.0 | 0.00 | 0.00 | 0.00 | 78 | 1020.5 |
| 20260902212034 | 69 | 103 | 0.0 | 8.0 | 0.00 | 0.00 | 0.00 | 78 | 1020.5 |
| 20260902211547 | 69 | 0 | 0.0 | 8.0 | 0.00 | 0.00 | 0.00 | 78 | 1020.4 |
| 20260902211033 | 70 | 103 | 1.0 | 8.0 | 0.00 | 0.00 | 0.00 | 77 | 1020.5 |
| 20260902210535 | 70 | 103 | 1.0 | 6.0 | 0.00 | 0.00 | 0.00 | 78 | 1020.4 |
| 20260902210047 | 70 | 103 | 0.0 | 10.0 | 0.00 | 0.00 | 0.00 | 78 | 1020.3 |
| 20260902205532 | 70 | 103 | 1.0 | 10.0 | 0.00 | 0.00 | 0.00 | 77 | 1020.3 |
| 20260902205030 | 70 | 103 | 4.0 | 10.0 | 0.00 | 0.00 | 0.00 | 77 | 1020.3 |
| 20260902204554 | 70 | 107 | 1.0 | 7.0 | 0.00 | 0.00 | 0.00 | 77 | 1020.2 |
| 20260902204033 | 70 | 107 | 2.0 | 7.0 | 0.00 | 0.00 | 0.00 | 77 | 1020.2 |
| 20260902203534 | 70 | 102 | 2.0 | 7.0 | 0.00 | 0.00 | 0.00 | 76 | 1020.5 |
| 20260902203049 | 70 | 102 | 0.0 | 8.0 | 0.00 | 0.00 | 0.00 | 77 | 1020.5 |
| 20260902202534 | 70 | 102 | 2.0 | 8.0 | 0.00 | 0.00 | 0.00 | 76 | 1020.7 |
| 20260902202034 | 70 | 103 | 1.0 | 8.0 | 0.00 | 0.00 | 0.00 | 76 | 1020.8 |
| 20260902201556 | 70 | 107 | 3.0 | 8.0 | 0.00 | 0.00 | 0.00 | 76 | 1020.5 |
| 20260902201030 | 70 | 0 | 0.0 | 6.0 | 0.00 | 0.00 | 0.00 | 76 | 1020.5 |
| 20260902200531 | 70 | 111 | 1.0 | 6.0 | 0.00 | 0.00 | 0.00 | 77 | 1020.4 |
| 20260902200045 | 70 | 111 | 1.0 | 10.0 | 0.00 | 0.00 | 0.00 | 76 | 1020.4 |
| 20260902195531 | 70 | 111 | 4.0 | 10.0 | 0.00 | 0.00 | 0.00 | 75 | 1020.3 |
| 20260902195030 | 70 | 120 | 3.0 | 8.0 | 0.00 | 0.00 | 0.00 | 75 | 1020.4 |
| 20260902194554 | 70 | 0 | 3.0 | 10.0 | 0.00 | 0.00 | 0.00 | 74 | 1020.4 |
| 20260902194030 | 70 | 112 | 1.0 | 10.0 | 0.00 | 0.00 | 0.00 | 75 | 1020.4 |
| 20260902193530 | 71 | 132 | 3.0 | 10.0 | 0.00 | 0.00 | 0.00 | 73 | 1020.4 |
| 20260902193102 | 71 | 123 | 1.0 | 7.0 | 0.00 | 0.00 | 0.00 | 73 | 1020.6 |
| 20260902192534 | 71 | 123 | 0.0 | 8.0 | 0.00 | 0.00 | 0.00 | 73 | 1020.6 |
| 20260902192034 | 71 | 0 | 2.0 | 8.0 | 0.00 | 0.00 | 0.00 | 72 | 1020.7 |
| 20260902191545 | 71 | 114 | 3.0 | 8.0 | 0.00 | 0.00 | 0.00 | 72 | 1020.8 |
| 20260902191031 | 72 | 0 | 3.0 | 10.0 | 0.00 | 0.00 | 0.00 | 71 | 1020.9 |
| 20260902190530 | 72 | 0 | 2.0 | 10.0 | 0.00 | 0.00 | 0.00 | 71 | 1020.9 |
| 20260902190056 | 72 | 158 | 2.0 | 10.0 | 0.00 | 0.00 | 0.00 | 72 | 1021.0 |
| 20260902185535 | 71 | 0 | 2.0 | 10.0 | 0.00 | 0.00 | 0.00 | 73 | 1020.8 |
| 20260902185037 | 72 | 147 | 3.0 | 10.0 | 0.00 | 0.00 | 0.00 | 71 | 1020.9 |
| 20260902184547 | 72 | 82 | 4.0 | 8.0 | 0.00 | 0.00 | 0.00 | 71 | 1021.1 |
| 20260902184030 | 72 | 94 | 1.0 | 7.0 | 0.00 | 0.00 | 0.00 | 71 | 1021.3 |
| 20260902183534 | 71 | 96 | 2.0 | 8.0 | 0.00 | 0.00 | 0.00 | 72 | 1021.1 |
| 20260902183113 | 71 | 93 | 0.0 | 8.0 | 0.00 | 0.00 | 0.00 | 72 | 1021.3 |
| 20260902182529 | 71 | 97 | 3.0 | 9.0 | 0.00 | 0.00 | 0.00 | 71 | 1021.2 |
| 20260902182034 | 71 | 93 | 2.0 | 9.0 | 0.00 | 0.00 | 0.00 | 70 | 1021.3 |
| 20260902181554 | 71 | 0 | 2.0 | 9.0 | 0.00 | 0.00 | 0.00 | 69 | 1021.5 |
| 20260902181033 | 71 | 0 | 1.0 | 9.0 | 0.00 | 0.00 | 0.00 | 68 | 1021.4 |
| 20260902180533 | 72 | 87 | 2.0 | 9.0 | 0.00 | 0.00 | 0.00 | 68 | 1021.4 |
| 20260902180104 | 72 | 90 | 3.0 | 7.0 | 0.00 | 0.00 | 0.00 | 67 | 1021.3 |
| 20260902175533 | 72 | 0 | 1.0 | 7.0 | 0.00 | 0.00 | 0.00 | 69 | 1021.2 |
| 20260902175032 | 72 | 103 | 2.0 | 10.0 | 0.00 | 0.00 | 0.00 | 67 | 1021.3 |
| 20260902174555 | 72 | 98 | 2.0 | 10.0 | 0.00 | 0.00 | 0.00 | 69 | 1021.3 |
| 20260902174033 | 72 | 0 | 3.0 | 8.0 | 0.00 | 0.00 | 0.00 | 67 | 1021.1 |
| 20260902173532 | 71 | 0 | 3.0 | 9.0 | 0.00 | 0.00 | 0.00 | 67 | 1021.2 |
| 20260902173047 | 72 | 104 | 1.0 | 9.0 | 0.00 | 0.00 | 0.00 | 69 | 1021.2 |
| 20260902172533 | 71 | 0 | 3.0 | 10.0 | 0.00 | 0.00 | 0.00 | 69 | 1021.2 |
| 20260902172033 | 71 | 99 | 1.0 | 10.0 | 0.00 | 0.00 | 0.00 | 71 | 1021.2 |
| 20260902171608 | 71 | 89 | 3.0 | 11.0 | 0.00 | 0.00 | 0.00 | 70 | 1021.3 |
| 20260902171031 | 71 | 78 | 2.0 | 11.0 | 0.00 | 0.00 | 0.00 | 69 | 1021.3 |
| 20260902170530 | 70 | 62 | 3.0 | 11.0 | 0.00 | 0.00 | 0.00 | 69 | 1021.1 |
| 20260902170050 | 70 | 88 | 1.0 | 9.0 | 0.00 | 0.00 | 0.00 | 70 | 1021.3 |
| 20260902165530 | 70 | 94 | 4.0 | 9.0 | 0.00 | 0.01 | 0.00 | 69 | 1021.4 |
| 20260902165033 | 70 | 119 | 3.0 | 12.0 | 0.00 | 0.01 | 0.00 | 71 | 1021.4 |
| 20260902164548 | 70 | 80 | 4.0 | 12.0 | 0.00 | 0.01 | 0.00 | 69 | 1021.4 |
| 20260902164033 | 70 | 62 | 3.0 | 10.0 | 0.00 | 0.01 | 0.00 | 71 | 1021.3 |
| 20260902163533 | 71 | 109 | 1.0 | 11.0 | 0.00 | 0.01 | 0.00 | 74 | 1021.4 |
| 20260902163056 | 70 | 0 | 3.0 | 11.0 | 0.00 | 0.01 | 0.00 | 73 | 1021.4 |
| 20260902162533 | 71 | 111 | 5.0 | 11.0 | 0.00 | 0.01 | 0.00 | 70 | 1021.3 |
| 20260902162030 | 71 | 113 | 4.0 | 12.0 | 0.00 | 0.01 | 0.00 | 70 | 1021.5 |
| 20260902161552 | 71 | 0 | 2.0 | 12.0 | 0.00 | 0.01 | 0.00 | 72 | 1021.7 |
| 20260902161030 | 71 | 74 | 3.0 | 10.0 | 0.00 | 0.01 | 0.00 | 71 | 1021.7 |
| 20260902160530 | 72 | 116 | 4.0 | 10.0 | 0.00 | 0.01 | 0.00 | 71 | 1021.7 |
| 20260902160050 | 72 | 0 | 2.0 | 10.0 | 0.00 | 0.01 | 0.00 | 73 | 1021.7 |
| 20260902155532 | 72 | 71 | 4.0 | 10.0 | 0.00 | 0.01 | 0.00 | 70 | 1021.8 |
| 20260902155030 | 72 | 92 | 3.0 | 8.0 | 0.00 | 0.01 | 0.00 | 72 | 1021.9 |
| 20260902154546 | 71 | 89 | 1.0 | 8.0 | 0.00 | 0.01 | 0.00 | 73 | 1021.9 |
| 20260902154034 | 71 | 92 | 3.0 | 11.0 | 0.00 | 0.01 | 0.00 | 72 | 1021.9 |
| 20260902153533 | 71 | 0 | 3.0 | 11.0 | 0.00 | 0.01 | 0.00 | 73 | 1021.9 |
| 20260902153052 | 71 | 88 | 2.0 | 9.0 | 0.00 | 0.01 | 0.00 | 72 | 1021.8 |
| 20260902152533 | 71 | 70 | 3.0 | 9.0 | 0.00 | 0.01 | 0.00 | 73 | 1021.8 |
| 20260902152033 | 70 | 0 | 4.0 | 10.0 | 0.00 | 0.01 | 0.00 | 72 | 1021.7 |
| 20260902151550 | 70 | 102 | 3.0 | 10.0 | 0.00 | 0.01 | 0.00 | 73 | 1021.8 |
| 20260902151030 | 70 | 117 | 3.0 | 10.0 | 0.00 | 0.01 | 0.00 | 73 | 1021.6 |
| 20260902150533 | 70 | 99 | 2.0 | 11.0 | 0.00 | 0.01 | 0.00 | 73 | 1021.7 |
| 20260902150049 | 70 | 137 | 3.0 | 11.0 | 0.00 | 0.01 | 0.00 | 74 | 1021.6 |
| 20260902145534 | 70 | 86 | 5.0 | 13.0 | 0.00 | 0.11 | 0.00 | 74 | 1021.4 |
| 20260902145032 | 70 | 113 | 4.0 | 13.0 | 0.00 | 0.11 | 0.00 | 75 | 1021.4 |
| 20260902144546 | 71 | 0 | 3.0 | 11.0 | 0.00 | 0.11 | 0.00 | 76 | 1021.6 |
| 20260902144029 | 71 | 59 | 2.0 | 9.0 | 0.00 | 0.11 | 0.00 | 76 | 1021.6 |
| 20260902143534 | 70 | 123 | 2.0 | 10.0 | 0.00 | 0.11 | 0.00 | 77 | 1021.5 |
| 20260902143059 | 70 | 103 | 4.0 | 10.0 | 0.00 | 0.11 | 0.00 | 76 | 1021.4 |
| 20260902142533 | 71 | 85 | 3.0 | 9.0 | 0.00 | 0.11 | 0.00 | 76 | 1021.7 |
| 20260902142033 | 71 | 55 | 3.0 | 9.0 | 0.00 | 0.11 | 0.00 | 77 | 1021.6 |
| 20260902141549 | 71 | 86 | 3.0 | 9.0 | 0.00 | 0.11 | 0.00 | 77 | 1021.5 |
| 20260902141032 | 71 | 98 | 3.0 | 8.0 | 0.00 | 0.11 | 0.00 | 76 | 1021.3 |
| 20260902140531 | 71 | 87 | 1.0 | 7.0 | 0.00 | 0.11 | 0.00 | 77 | 1021.4 |
| 20260902140046 | 70 | 0 | 0.0 | 10.0 | 0.00 | 0.11 | 0.00 | 80 | 1021.3 |
| 20260902135529 | 70 | 89 | 2.0 | 10.0 | 0.00 | 0.11 | 0.00 | 79 | 1021.1 |
| 20260902135029 | 70 | 71 | 2.0 | 9.0 | 0.00 | 0.11 | 0.00 | 79 | 1021.1 |
| 20260902134552 | 70 | 0 | 1.0 | 9.0 | 0.00 | 0.11 | 0.00 | 80 | 1021.1 |
| 20260902134034 | 69 | 74 | 1.0 | 6.0 | 0.00 | 0.11 | 0.00 | 80 | 1021.0 |
| 20260902133536 | 69 | 76 | 1.0 | 7.0 | 0.00 | 0.11 | 0.00 | 81 | 1021.0 |
| 20260902133056 | 68 | 75 | 1.0 | 9.0 | 0.00 | 0.11 | 0.00 | 81 | 1020.9 |
| 20260902132536 | 68 | 62 | 1.0 | 10.0 | 0.00 | 0.11 | 0.00 | 81 | 1020.8 |
| 20260902132033 | 68 | 119 | 4.0 | 10.0 | 0.00 | 0.11 | 0.00 | 80 | 1020.8 |
| 20260902131555 | 68 | 78 | 2.0 | 11.0 | 0.00 | 0.11 | 0.00 | 80 | 1020.6 |
| 20260902131030 | 69 | 94 | 2.0 | 11.0 | 0.00 | 0.11 | 0.00 | 79 | 1020.7 |
| 20260902130533 | 69 | 75 | 4.0 | 11.0 | 0.00 | 0.11 | 0.00 | 81 | 1020.5 |
| 20260902130048 | 68 | 117 | 3.0 | 12.0 | 0.00 | 0.11 | 0.00 | 81 | 1020.5 |
| 20260902125536 | 68 | 153 | 3.0 | 12.0 | 0.00 | 0.11 | 0.00 | 81 | 1020.7 |
| 20260902125031 | 68 | 93 | 3.0 | 11.0 | 0.00 | 0.11 | 0.00 | 82 | 1020.6 |
| 20260902124546 | 68 | 0 | 6.0 | 11.0 | 0.00 | 0.11 | 0.00 | 82 | 1020.7 |
| 20260902124034 | 67 | 82 | 3.0 | 11.0 | 0.00 | 0.11 | 0.00 | 83 | 1020.8 |
| 20260902123531 | 67 | 107 | 3.0 | 11.0 | 0.00 | 0.11 | 0.00 | 83 | 1020.8 |
| 20260902123051 | 67 | 88 | 1.0 | 4.0 | 0.00 | 0.11 | 0.00 | 84 | 1020.7 |
| 20260902122531 | 67 | 88 | 1.0 | 5.0 | 0.00 | 0.11 | 0.00 | 84 | 1020.8 |
| 20260902122034 | 67 | 88 | 0.0 | 7.0 | 0.00 | 0.11 | 0.00 | 85 | 1020.8 |
| 20260902121546 | 66 | 88 | 1.0 | 7.0 | 0.00 | 0.11 | 0.00 | 85 | 1020.7 |
| 20260902121032 | 66 | 87 | 1.0 | 5.0 | 0.00 | 0.11 | 0.00 | 85 | 1020.8 |
| 20260902120530 | 66 | 87 | 1.0 | 5.0 | 0.00 | 0.11 | 0.00 | 86 | 1020.9 |
| 20260902120048 | 66 | 0 | 0.0 | 5.0 | 0.00 | 0.11 | 0.00 | 86 | 1021.0 |
| 20260902115530 | 65 | 0 | 0.0 | 4.0 | 0.00 | 0.11 | 0.00 | 87 | 1021.1 |
| 20260902115031 | 65 | 87 | 0.0 | 5.0 | 0.00 | 0.11 | 0.00 | 86 | 1021.2 |
| 20260902114546 | 65 | 0 | 1.0 | 5.0 | 0.00 | 0.11 | 0.00 | 86 | 1021.3 |
| 20260902114032 | 65 | 87 | 0.0 | 4.0 | 0.00 | 0.11 | 0.00 | 87 | 1021.3 |
| 20260902113534 | 65 | 0 | 0.0 | 4.0 | 0.00 | 0.11 | 0.00 | 87 | 1021.3 |
| 20260902113044 | 65 | 0 | 0.0 | 4.0 | 0.00 | 0.11 | 0.00 | 87 | 1021.1 |
| 20260902112534 | 65 | 87 | 1.0 | 4.0 | 0.00 | 0.11 | 0.00 | 87 | 1021.0 |
| 20260902112031 | 65 | 0 | 0.0 | 4.0 | 0.00 | 0.11 | 0.00 | 87 | 1021.0 |
| 20260902111550 | 64 | 0 | 0.0 | 4.0 | 0.00 | 0.11 | 0.00 | 87 | 1021.0 |
| 20260902111030 | 64 | 88 | 0.0 | 3.0 | 0.00 | 0.11 | 0.00 | 87 | 1020.8 |
| 20260902110532 | 65 | 0 | 1.0 | 3.0 | 0.00 | 0.11 | 0.00 | 86 | 1020.8 |
| 20260902110047 | 65 | 0 | 0.0 | 3.0 | 0.00 | 0.11 | 0.00 | 87 | 1020.8 |
| 20260902105530 | 65 | 0 | 0.0 | 5.0 | 0.00 | 0.11 | 0.00 | 87 | 1020.8 |
| 20260902105031 | 65 | 88 | 0.0 | 5.0 | 0.00 | 0.11 | 0.00 | 86 | 1020.8 |
| 20260902104546 | 64 | 88 | 0.0 | 5.0 | 0.00 | 0.11 | 0.00 | 87 | 1020.6 |
| 20260902104031 | 64 | 0 | 0.0 | 4.0 | 0.00 | 0.11 | 0.00 | 87 | 1020.6 |
| 20260902103533 | 64 | 0 | 0.0 | 4.0 | 0.00 | 0.11 | 0.00 | 86 | 1020.6 |
| 20260902103052 | 64 | 88 | 0.0 | 4.0 | 0.00 | 0.11 | 0.00 | 86 | 1020.5 |
| 20260902102533 | 64 | 88 | 0.0 | 4.0 | 0.00 | 0.11 | 0.00 | 86 | 1020.6 |
| 20260902102031 | 64 | 0 | 1.0 | 4.0 | 0.00 | 0.11 | 0.00 | 86 | 1020.5 |
| 20260902101550 | 64 | 88 | 1.0 | 5.0 | 0.00 | 0.11 | 0.00 | 86 | 1020.4 |
| 20260902101031 | 64 | 88 | 0.0 | 5.0 | 0.00 | 0.11 | 0.00 | 86 | 1020.4 |
| 20260902100531 | 64 | 0 | 1.0 | 5.0 | 0.00 | 0.11 | 0.00 | 86 | 1020.3 |
| 20260902100048 | 64 | 0 | 1.0 | 4.0 | 0.00 | 0.11 | 0.00 | 86 | 1020.3 |
| 20260902095530 | 64 | 88 | 0.0 | 4.0 | 0.00 | 0.14 | 0.00 | 86 | 1020.4 |
| 20260902095032 | 64 | 88 | 0.0 | 3.0 | 0.00 | 0.14 | 0.00 | 86 | 1020.4 |
| 20260902094558 | 64 | 88 | 0.0 | 5.0 | 0.00 | 0.14 | 0.00 | 86 | 1020.4 |
| 20260902094031 | 64 | 88 | 0.0 | 5.0 | 0.00 | 0.14 | 0.00 | 86 | 1020.3 |
| 20260902093532 | 64 | 88 | 2.0 | 5.0 | 0.00 | 0.14 | 0.00 | 86 | 1020.2 |
| 20260902093101 | 64 | 88 | 1.0 | 5.0 | 0.00 | 0.14 | 0.00 | 86 | 1020.2 |
| 20260902092531 | 64 | 0 | 0.0 | 5.0 | 0.00 | 0.14 | 0.00 | 86 | 1020.2 |
| 20260902092031 | 64 | 88 | 1.0 | 5.0 | 0.00 | 0.14 | 0.00 | 86 | 1020.1 |
| 20260902091549 | 64 | 0 | 1.0 | 5.0 | 0.00 | 0.14 | 0.00 | 86 | 1020.0 |
| 20260902091030 | 64 | 0 | 0.0 | 6.0 | 0.00 | 0.14 | 0.00 | 85 | 1020.0 |
| 20260902090531 | 64 | 88 | 1.0 | 7.0 | 0.00 | 0.14 | 0.00 | 85 | 1019.9 |
| 20260902090047 | 64 | 88 | 2.0 | 7.0 | 0.00 | 0.14 | 0.00 | 85 | 1019.8 |
| 20260902085530 | 64 | 88 | 1.0 | 3.0 | 0.00 | 0.22 | 0.00 | 85 | 1019.9 |
| 20260902085030 | 64 | 0 | 0.0 | 3.0 | 0.00 | 0.22 | 0.00 | 85 | 1020.1 |
| 20260902084547 | 64 | 88 | 0.0 | 3.0 | 0.00 | 0.22 | 0.00 | 85 | 1020.0 |
| 20260902084031 | 64 | 88 | 0.0 | 8.0 | 0.00 | 0.22 | 0.00 | 85 | 1020.1 |
| 20260902083535 | 64 | 0 | 2.0 | 8.0 | 0.00 | 0.22 | 0.00 | 85 | 1019.9 |
| 20260902083044 | 64 | 88 | 2.0 | 7.0 | 0.00 | 0.22 | 0.00 | 85 | 1019.8 |
| 20260902082531 | 64 | 0 | 1.0 | 5.0 | 0.00 | 0.22 | 0.00 | 85 | 1019.8 |
| 20260902082031 | 64 | 88 | 1.0 | 5.0 | 0.00 | 0.22 | 0.00 | 85 | 1019.8 |
| 20260902081550 | 64 | 88 | 1.0 | 5.0 | 0.00 | 0.22 | 0.00 | 85 | 1019.9 |
| 20260902081032 | 64 | 0 | 1.0 | 8.0 | 0.00 | 0.22 | 0.00 | 85 | 1019.8 |
| 20260902080530 | 64 | 88 | 0.0 | 8.0 | 0.00 | 0.22 | 0.00 | 85 | 1019.9 |
| 20260902080048 | 64 | 86 | 1.0 | 5.0 | 0.00 | 0.22 | 0.00 | 85 | 1019.8 |
| 20260902075533 | 64 | 85 | 1.0 | 4.0 | 0.00 | 0.31 | 0.00 | 85 | 1019.8 |
| 20260902075032 | 64 | 85 | 0.0 | 6.0 | 0.00 | 0.31 | 0.00 | 85 | 1019.8 |
| 20260902074556 | 64 | 0 | 0.0 | 7.0 | 0.00 | 0.31 | 0.00 | 85 | 1019.8 |
| 20260902074035 | 64 | 85 | 2.0 | 7.0 | 0.00 | 0.31 | 0.00 | 85 | 1019.8 |
| 20260902073531 | 64 | 0 | 1.0 | 7.0 | 0.00 | 0.31 | 0.00 | 86 | 1019.7 |
| 20260902073055 | 64 | 86 | 0.0 | 7.0 | 0.00 | 0.31 | 0.00 | 86 | 1019.6 |
| 20260902072531 | 64 | 86 | 1.0 | 7.0 | 0.00 | 0.31 | 0.00 | 86 | 1019.5 |
| 20260902072031 | 64 | 88 | 2.0 | 7.0 | 0.00 | 0.31 | 0.00 | 86 | 1019.4 |
| 20260902071552 | 65 | 88 | 0.0 | 7.0 | 0.00 | 0.31 | 0.00 | 85 | 1019.4 |
| 20260902071031 | 65 | 0 | 1.0 | 4.0 | 0.00 | 0.31 | 0.00 | 85 | 1019.4 |
| 20260902070530 | 65 | 88 | 0.0 | 4.0 | 0.00 | 0.31 | 0.00 | 85 | 1019.4 |
| 20260902070049 | 65 | 88 | 0.0 | 5.0 | 0.00 | 0.31 | 0.00 | 84 | 1019.3 |
| 20260902065531 | 65 | 0 | 0.0 | 5.0 | 0.00 | 0.31 | 0.00 | 83 | 1019.2 |
| 20260902065031 | 66 | 88 | 1.0 | 5.0 | 0.00 | 0.31 | 0.00 | 83 | 1019.1 |
| 20260902064548 | 66 | 88 | 1.0 | 5.0 | 0.00 | 0.31 | 0.00 | 81 | 1019.2 |
| 20260902064032 | 65 | 88 | 2.0 | 8.0 | 0.00 | 0.31 | 0.00 | 77 | 1019.3 |
| 20260902063531 | 65 | 0 | 0.0 | 9.0 | 0.00 | 0.31 | 0.00 | 77 | 1019.2 |
| 20260902063045 | 65 | 95 | 2.0 | 9.0 | 0.00 | 0.31 | 0.00 | 77 | 1019.1 |
| 20260902062536 | 65 | 98 | 2.0 | 10.0 | 0.00 | 0.31 | 0.00 | 78 | 1019.1 |
| 20260902062035 | 65 | 78 | 2.0 | 10.0 | 0.00 | 0.31 | 0.00 | 79 | 1019.1 |
| 20260902061600 | 65 | 96 | 3.0 | 9.0 | 0.00 | 0.31 | 0.00 | 80 | 1018.9 |
| 20260902061030 | 65 | 96 | 1.0 | 9.0 | 0.00 | 0.31 | 0.00 | 81 | 1019.2 |
| 20260902060530 | 65 | 96 | 1.0 | 9.0 | 0.00 | 0.31 | 0.00 | 81 | 1019.2 |
| 20260902060057 | 65 | 87 | 3.0 | 9.0 | 0.00 | 0.31 | 0.00 | 81 | 1019.2 |
| 20260902055531 | 65 | 92 | 1.0 | 9.0 | 0.00 | 0.31 | 0.00 | 81 | 1019.2 |
| 20260902055032 | 65 | 102 | 1.0 | 8.0 | 0.00 | 0.31 | 0.00 | 82 | 1019.3 |
| 20260902054605 | 65 | 102 | 2.0 | 8.0 | 0.00 | 0.31 | 0.00 | 82 | 1019.2 |
| 20260902054033 | 65 | 103 | 3.0 | 7.0 | 0.00 | 0.31 | 0.00 | 83 | 1019.3 |
| 20260902053533 | 65 | 101 | 2.0 | 6.0 | 0.00 | 0.31 | 0.00 | 83 | 1019.4 |
| 20260902053059 | 65 | 0 | 1.0 | 8.0 | 0.00 | 0.31 | 0.00 | 84 | 1019.4 |
| 20260902052531 | 65 | 0 | 2.0 | 8.0 | 0.00 | 0.31 | 0.00 | 85 | 1019.4 |
| 20260902052031 | 65 | 102 | 1.0 | 8.0 | 0.00 | 0.31 | 0.00 | 86 | 1019.3 |
| 20260902051550 | 65 | 101 | 2.0 | 6.0 | 0.00 | 0.31 | 0.00 | 87 | 1019.2 |
| 20260902051032 | 65 | 102 | 2.0 | 9.0 | 0.00 | 0.31 | 0.00 | 87 | 1019.2 |
| 20260902050530 | 65 | 102 | 3.0 | 9.0 | 0.00 | 0.31 | 0.00 | 88 | 1019.1 |
| 20260902050050 | 65 | 101 | 2.0 | 7.0 | 0.00 | 0.31 | 0.00 | 89 | 1019.0 |
| 20260902045529 | 65 | 101 | 2.0 | 8.0 | 0.00 | 0.31 | 0.00 | 89 | 1019.1 |
| 20260902045029 | 65 | 100 | 2.0 | 10.0 | 0.00 | 0.31 | 0.00 | 90 | 1019.0 |
| 20260902044549 | 65 | 99 | 2.0 | 10.0 | 0.00 | 0.31 | 0.00 | 91 | 1018.9 |
| 20260902044030 | 65 | 98 | 2.0 | 11.0 | 0.00 | 0.31 | 0.00 | 91 | 1018.8 |
| 20260902043530 | 65 | 0 | 1.0 | 11.0 | 0.00 | 0.31 | 0.00 | 92 | 1018.9 |
| 20260902043046 | 65 | 103 | 1.0 | 8.0 | 0.00 | 0.31 | 0.00 | 92 | 1018.7 |
| 20260902042530 | 65 | 0 | 2.0 | 8.0 | 0.00 | 0.31 | 0.00 | 92 | 1018.8 |
| 20260902042030 | 65 | 101 | 1.0 | 6.0 | 0.00 | 0.31 | 0.00 | 92 | 1018.8 |
| 20260902041553 | 65 | 101 | 1.0 | 7.0 | 0.00 | 0.31 | 0.00 | 92 | 1018.7 |
| 20260902041031 | 65 | 92 | 2.0 | 7.0 | 0.00 | 0.31 | 0.00 | 92 | 1018.7 |
| 20260902040535 | 65 | 105 | 2.0 | 6.0 | 0.00 | 0.31 | 0.00 | 92 | 1018.6 |
| 20260902040051 | 65 | 110 | 1.0 | 6.0 | 0.00 | 0.31 | 0.00 | 92 | 1018.6 |